Home   Weather   Valladolid   Past weeks

Flag for Spain Past Weather in Valladolid, Spain — Yesterday and Last 2 Weeks

Now
41 °F

Clear.


Feels Like: 41 °F
Forecast: 37 / 54 °F
Wind: 1 mph from South

Location: Valladolid

Current Time: Feb 26, 2017 at 2:18:31 am

Latest Report: Feb 26, 2017 at 1:00 am


Visibility: 9 mi

Pressure: 30.21 "Hg (27.68 "Hg at 712m altitude)

Humidity: 67%

Dew Point: 30 °F

Location of ValladolidLocation

Past Weather in Valladolid — Graph

°F

Valladolid Temperature Yesterday

Maximum temperature yesterday: 61 °F (at 5:00 pm)
Minimum temperature yesterday: 31 °F (at 8:00 am)
Average temperature yesterday: 44 °F

High & Low Weather Summary for the Past Weeks

 TemperatureHumidityPressure
High66 °F (Feb 22, 5:00 pm)99% (Feb 16, 9:00 am)30.54 "Hg (Feb 16, 9:00 am)
Low31 °F (Feb 25, 8:00 am)24% (Feb 22, 5:00 pm)29.41 "Hg (Feb 13, 4:00 am)
Average46 °F73%30.14 "Hg
* Reported Feb 11 12:00 am — Feb 26 12:00 am, Valladolid, Weather by CustomWeather, © 2017

Note: Actual official high and low records may vary slightly from our data, if they occured in-between our weather recording intervals... More about our weather records

Advertising

Valladolid Weather History for the Previous 24 Hours

Scroll right to see more
 ConditionsComfort  
Time TempWeatherWind HumidityBarometerVisibility
12:00 am
Sun, Feb 26
43 °FQuite cool.1 mph61%30.20 "Hg12 mi
11:00 pm
Sat, Feb 25
45 °FQuite cool.2 mph56%30.19 "Hg12 mi
10:00 pm47 °FPassing clouds.2 mph52%30.16 "Hg9 mi
9:00 pm49 °FCool.1 mph46%30.14 "Hg12 mi
8:00 pm53 °FCool.6 mph37%30.11 "Hg12 mi
7:00 pm56 °FScattered clouds.5 mph36%30.09 "Hg19 mi
6:00 pm59 °FRefreshingly cool.5 mph37%30.06 "Hg12 mi
5:00 pm61 °FRefreshingly cool.3 mph27%30.05 "Hg4 mi
4:00 pm60 °FPassing clouds.2 mph34%30.06 "Hg19 mi
3:00 pm57 °FRefreshingly cool.2 mph41%30.09 "Hg9 mi
2:00 pm54 °FCool.2 mph43%30.13 "Hg12 mi
1:00 pm51 °FPassing clouds.2 mph53%30.17 "Hg16 mi
12:00 pm46 °FCool.2 mph61%30.20 "Hg12 mi
11:00 am41 °FQuite cool.3 mph70%30.24 "Hg12 mi
10:00 am36 °FPassing clouds.1 mph81%30.26 "Hg9 mi
9:00 am32 °FChilly.1 mph92%30.27 "Hg12 mi
8:00 am31 °FChilly.1 mph93%30.26 "Hg12 mi
7:00 am32 °FPassing clouds.2 mph91%30.26 "Hg7 mi
6:00 am32 °FChilly.1 mph90%30.24 "Hg12 mi
5:00 am33 °FChilly.1 mph88%30.24 "Hg12 mi
4:00 am33 °FPassing clouds.2 mph87%30.24 "Hg9 mi
3:00 am34 °FChilly.3 mph86%30.24 "Hg12 mi
2:00 am36 °FChilly.2 mph81%30.24 "Hg12 mi
Weather by CustomWeather, © 2017

See weather overviewHow to use our weather pages